Location: Cantaing
(50.1487°N, 3.1675°E)
Time: 15:48:14
(UTC+00:00)

Meteor 2-19 Rocket - Pass Details

Date: 27 April 2026
Orbit: 936 x 958 km, 82.5° (Epoch: 13 May)

Event Time Altitude Azimuth Distance (km) Brightness Sun altitude
Rises 19:36:55 0° 339° (NNW) 3,640 8.4 -6.1°
Reaches altitude 10° 19:40:11 10° 322° (NW) 2,685 8.2 -6.5°
Maximum altitude 19:44:13 19° 280° (W) 2,115 7.4 -7.1°
Drops below altitude 10° 19:48:13 10° 239° (WSW) 2,663 7.2 -7.6°
Sets 19:51:27 0° 222° (SW) 3,598 7.6 -8.0°
